Weather History for KAQW - December, 2013

Change the Weather History Date:

Thursday, December 26, 2013

  Actual Average Record
Temperature  
Mean Temperature 26 °F -  
Max Temperature 30 °F 33 °F 44 °F (2014)
Min Temperature 21 °F 18 °F 3 °F (2000)
Degree Days  
Heating Degree Days 40    
Moisture  
Dew Point 19 °F    
Average Humidity 72    
Maximum Humidity 86    
Minimum Humidity 48    
Precipitation  
Precipitation 0.00 in - - ()
Sea Level Pressure  
Sea Level Pressure 30.21 in    
Wind  
Wind Speed 8 mph (ENE)    
Max Wind Speed 16 mph    
Max Gust Speed 23 mph    
Visibility 6 miles    
Events Snow    
Averages and records for this station are not official NWS values.
T = Trace of Precipitation, MM = Missing Value Source: NWS Daily Summary

Daily Weather History Graph

Daily Weather History Graph

Search for Another Location

Airport or City:

Trip Planner

Search our weather history database for the weather conditions in past years. The results will help you decide how hot, cold, wet, or windy it might be!

Date:

Astronomy

Dec. 26, 2013 Rise Set
Actual Time 7:21 AM EST 4:25 PM EST
Civil Twilight 6:49 AM EST 4:57 PM EST
Nautical Twilight 6:14 AM EST 5:32 PM EST
Astronomical Twilight 5:39 AM EST 6:07 PM EST
Moon 12:41 AM EST (12/26) 12:04 PM EST (12/26)
Length of Visible Light 10h 07m
Length of Day
9h 03m
Last Quarter, 38% of the Moon is Illuminated
Dec 26
Last Quarter
Jan 1
New
Jan 7
First Quarter
Jan 15
Full
Jan 24
Last Quarter

Hourly Weather History & Observations

Time (EST) Temp. Windchill Dew Point Humidity Pressure Visibility Wind Dir Wind Speed Gust Speed Precip Events Conditions
12:52 AM 21.9 °F 14.5 °F 5.0 °F 48% 30.42 in 10.0 mi NNE 5.8 mph - N/A   Overcast
1:52 AM 21.9 °F 9.2 °F 7.0 °F 53% 30.40 in 10.0 mi East 13.8 mph 20.7 mph N/A   Overcast
2:52 AM 21.9 °F 9.8 °F 8.1 °F 55% 30.41 in 10.0 mi East 12.7 mph 20.7 mph N/A   Overcast
3:52 AM 23.0 °F 14.7 °F 9.0 °F 55% 30.38 in 10.0 mi Variable 6.9 mph - N/A   Overcast
4:52 AM 23.0 °F 14.7 °F 10.9 °F 60% 30.34 in 10.0 mi East 6.9 mph - N/A   Overcast
5:49 AM 24.8 °F 16.1 °F 12.2 °F 59% 30.28 in 10.0 mi East 8.1 mph 17.3 mph N/A   Overcast
5:52 AM 24.1 °F 15.2 °F 12.9 °F 62% 30.32 in 10.0 mi East 8.1 mph - N/A   Overcast
6:28 AM 24.8 °F 16.1 °F 15.8 °F 69% 30.27 in 10.0 mi East 8.1 mph - N/A   Overcast
6:52 AM 25.0 °F 16.3 °F 16.0 °F 69% 30.31 in 10.0 mi East 8.1 mph - N/A   Overcast
7:02 AM 24.8 °F 15.3 °F 15.8 °F 69% 30.27 in 10.0 mi East 9.2 mph - N/A   Overcast
7:52 AM 25.0 °F 17.1 °F 17.1 °F 72% 30.30 in 9.0 mi Variable 6.9 mph - N/A   Overcast
8:52 AM 25.0 °F 14.2 °F 19.0 °F 78% 30.27 in 2.5 mi East 11.5 mph 19.6 mph 0.00 in Snow Light Snow
9:04 AM 24.8 °F 14.6 °F 19.4 °F 80% 30.24 in 4.0 mi ESE 10.4 mph - 0.00 in Snow Light Snow
9:30 AM 26.6 °F 18.2 °F 19.4 °F 74% 30.23 in 1.8 mi East 8.1 mph - 0.00 in Snow Light Snow
9:35 AM 24.8 °F 15.3 °F 21.2 °F 86% 30.24 in 1.0 mi East 9.2 mph - 0.00 in Snow Light Snow
9:52 AM 26.1 °F 16.8 °F 21.9 °F 84% 30.26 in 0.8 mi East 9.2 mph 16.1 mph 0.00 in Snow Light Snow
10:18 AM 26.6 °F 18.2 °F 21.2 °F 80% 30.20 in 1.0 mi ENE 8.1 mph - 0.00 in Snow Light Snow
10:31 AM 26.6 °F 17.5 °F 21.2 °F 80% 30.19 in 2.0 mi ENE 9.2 mph - 0.00 in Snow Light Snow
10:43 AM 26.6 °F 18.2 °F 21.2 °F 80% 30.18 in 1.8 mi ENE 8.1 mph - 0.00 in Snow Light Snow
10:52 AM 28.0 °F 20.0 °F 21.9 °F 78% 30.21 in 2.5 mi ENE 8.1 mph - 0.00 in Snow Light Snow
11:01 AM 28.4 °F 21.2 °F 21.2 °F 74% 30.17 in 4.0 mi ENE 6.9 mph - 0.00 in Snow Light Snow
11:08 AM 28.4 °F 22.2 °F 21.2 °F 74% 30.17 in 2.5 mi ENE 5.8 mph - 0.00 in Snow Light Snow
11:35 AM 28.4 °F 24.6 °F 23.0 °F 80% 30.15 in 1.5 mi East 3.5 mph - 0.00 in Snow Light Snow
11:52 AM 28.0 °F 24.2 °F 23.0 °F 81% 30.17 in 1.2 mi Variable 3.5 mph - 0.00 in Snow Light Snow
12:49 PM 28.4 °F 24.6 °F 24.8 °F 86% 30.10 in 1.5 mi Variable 3.5 mph - 0.00 in Snow Light Snow
12:52 PM 28.0 °F 20.8 °F 24.1 °F 85% 30.13 in 1.5 mi Variable 6.9 mph - 0.00 in Snow Light Snow
1:00 PM 28.4 °F 24.6 °F 24.8 °F 86% 30.10 in 3.0 mi Variable 3.5 mph - 0.00 in Snow Light Snow
1:38 PM 30.2 °F 23.4 °F 21.2 °F 69% 30.08 in 5.0 mi WSW 6.9 mph - 0.00 in Snow Light Snow
1:52 PM 30.0 °F 21.1 °F 21.0 °F 69% 30.11 in 9.0 mi WSW 10.4 mph 16.1 mph 0.00 in   Overcast
2:00 PM 30.2 °F 21.9 °F 21.2 °F 69% 30.07 in 10.0 mi West 9.2 mph 16.1 mph N/A   Overcast
2:52 PM 28.9 °F 22.8 °F 21.9 °F 75% 30.11 in 7.0 mi West 5.8 mph - 0.00 in   Overcast
3:08 PM 28.4 °F 21.2 °F 21.2 °F 74% 30.09 in 1.8 mi West 6.9 mph - 0.00 in Snow Light Snow
3:16 PM 28.4 °F 21.2 °F 21.2 °F 74% 30.09 in 3.0 mi West 6.9 mph - 0.00 in Snow Light Snow
3:50 PM 28.4 °F 21.2 °F 21.2 °F 74% 30.10 in 10.0 mi West 6.9 mph - 0.00 in   Overcast
3:52 PM 28.9 °F 21.9 °F 21.9 °F 75% 30.13 in 10.0 mi West 6.9 mph - 0.00 in   Overcast
4:52 PM 28.9 °F 21.9 °F 21.9 °F 75% 30.15 in 10.0 mi West 6.9 mph - N/A   Overcast
5:52 PM 28.9 °F 21.9 °F 21.9 °F 75% 30.17 in 10.0 mi West 6.9 mph - N/A   Overcast
6:52 PM 28.9 °F 21.9 °F 21.9 °F 75% 30.20 in 10.0 mi West 6.9 mph - N/A   Overcast
7:52 PM 27.0 °F 18.7 °F 19.9 °F 75% 30.21 in 10.0 mi West 8.1 mph - N/A   Clear
8:52 PM 28.9 °F 19.8 °F 19.9 °F 69% 30.20 in 10.0 mi WSW 10.4 mph - N/A   Mostly Cloudy
9:52 PM 28.9 °F 17.3 °F 19.0 °F 67% 30.21 in 10.0 mi West 16.1 mph - N/A   Partly Cloudy
10:52 PM 28.0 °F 16.5 °F 19.0 °F 69% 30.22 in 10.0 mi West 15.0 mph 20.7 mph N/A   Partly Cloudy
11:52 PM 28.0 °F 18.6 °F 17.1 °F 63% 30.22 in 10.0 mi West 10.4 mph 23.0 mph N/A   Mostly Cloudy